Powrót do katalogu

STARLINK-11746

AktywnyŁącznośćVLEO
NORAD 64372·PAYLOAD·🇺🇸 United States

Wystrzelony Jun 13, 2025 z Cape Canaveral Space Force Station

Loading…

Następne Przeloty (najbliższe 24 godziny)

TLE

ŚwieżeSource: CelesTrak SupGP

Epoka: Sep 15, 2026, 02:24 UTC

1 64372C 25127C   26258.10048611 -.00111890  00000+0 -86890-3 0  2586
2 64372  43.0011  22.6641 0001791 260.0104 100.0230 15.70897046    19

Śledź STARLINK-11746 w czasie rzeczywistym z AllMySat

Download on the App Store